EW4771 Weather Reports


time (UTC)temp
C
wind
direction
speed
KPH
gust
KPH
rain 1hr
cm
rain 24hr
cm
rain mn
cm
humidity
%
barometer
mb
20260506103558 9 140 0.0 0.0 0.00 0.03 0.03 1 1019.5
20260506103052 9 140 0.0 0.0 0.00 0.03 0.03 1 1019.4
20260506102545 9 140 0.0 0.0 0.00 0.03 0.03 1 1019.4
20260506102311 9 140 0.0 0.0 0.00 0.03 0.03 1 1019.4
20260506101533 9 140 0.0 0.0 0.03 0.03 0.03 1 1019.4
20260506101027 9 140 0.0 0.0 0.03 0.03 0.03 1 1019.4
20260506100753 9 140 0.0 0.0 0.03 0.03 0.03 1 1019.3
20260506100015 9 140 0.0 0.0 0.03 0.03 0.03 1 1019.3
20260506095509 9 140 0.0 0.0 0.03 0.03 0.03 1 1019.4
20260506095002 9 140 0.0 0.0 0.03 0.03 0.03 1 1019.3
20260506094457 9 140 0.0 0.0 0.03 0.03 0.03 1 1019.3
20260506093952 9 140 0.0 0.0 0.03 0.03 0.03 1 1019.3
20260506093445 9 140 0.0 0.0 0.03 0.03 0.03 1 1019.3
20260506092939 9 140 0.0 0.0 0.03 0.03 0.03 1 1019.3
20260506092433 9 140 0.0 0.0 0.03 0.03 0.03 1 1019.3
20260506091928 9 140 0.0 0.0 0.00 0.00 0.03 1 1019.3
20260506091422 9 140 0.0 0.0 0.00 0.00 0.00 1 1019.3
20260506090915 8 140 0.0 0.0 0.00 0.00 0.00 1 1019.3
20260506090409 8 140 0.0 0.0 0.00 0.00 0.00 1 1019.3
20260506085903 8 140 0.0 0.0 0.00 0.00 0.00 1 1019.3
20260506085357 8 140 0.0 0.0 0.00 0.00 0.00 1 1019.4
20260506084851 8 140 0.0 0.0 0.00 0.00 0.00 1 1019.3
20260506084346 8 140 0.0 0.0 0.00 0.00 0.00 1 1019.4
20260506083839 8 140 0.0 0.0 0.00 0.00 0.00 1 1019.3
20260506083334 8 140 0.0 0.0 0.00 0.00 0.00 1 1019.4
20260506082827 8 140 0.0 1.6 0.00 0.00 0.00 1 1019.4
20260506082322 8 140 0.0 1.6 0.00 0.00 0.00 1 1019.4
20260506081815 8 140 0.0 0.0 0.00 0.00 0.00 1 1019.4
20260506081310 8 140 0.0 0.0 0.00 0.00 0.00 1 1019.3
20260506080804 8 140 0.0 0.0 0.00 0.00 0.00 1 1019.4
20260506080303 8 140 0.0 0.0 0.00 0.00 0.00 1 1019.3
20260506073524 8 140 0.0 0.0 0.00 0.00 0.00 1 1019.2
20260506072754 9 140 0.0 0.0 0.00 0.00 0.00 1 1019.2
20260506072254 8 140 0.0 0.0 0.00 0.00 0.00 1 1019.1
20260506072027 8 140 0.0 0.0 0.00 0.00 0.00 1 1019.1
20260506071254 8 140 0.0 0.0 0.00 0.00 0.00 1 1019.1
20260506071024 8 140 0.0 1.6 0.00 0.00 0.00 1 1018.9
20260506070254 8 140 0.0 1.6 0.00 0.00 0.00 1 1018.9
20260506062252 9 140 0.0 1.6 0.00 0.00 0.00 1 1018.3
20260506061750 9 140 0.0 1.6 0.00 0.00 0.00 1 1018.3
20260506061248 9 140 0.0 0.0 0.00 0.03 0.00 1 1018.3
20260506060749 9 140 0.0 0.0 0.00 0.03 0.00 1 1018.3
20260506060250 9 140 0.0 0.0 0.00 0.03 0.00 1 1018.2
20260506051245 9 140 1.6 3.2 0.00 0.05 0.00 4 1018.1
20260506050745 9 140 0.0 3.2 0.00 0.05 0.00 4 1018.0
20260506050245 9 140 0.0 3.2 0.00 0.05 0.00 4 1018.0
20260506044744 9 140 0.0 4.8 0.00 0.08 0.00 6 1017.9
20260506044244 9 140 0.0 4.8 0.00 0.08 0.00 7 1017.9
20260506044017 9 140 0.0 3.2 0.00 0.08 0.00 8 1017.8
20260506043246 9 140 0.0 3.2 0.00 0.08 0.00 9 1017.7
20260506042743 9 140 0.0 3.2 0.00 0.10 0.00 10 1017.6
20260506042243 9 140 0.0 3.2 0.00 0.10 0.00 9 1017.5
20260506041743 9 140 0.0 3.2 0.00 0.10 0.00 10 1017.4
20260506041243 9 140 1.6 6.4 0.00 0.10 0.00 11 1017.4
20260506040737 9 140 1.6 6.4 0.00 0.10 0.00 12 1017.4
20260506040502 9 135 1.6 4.8 0.00 0.10 0.00 13 1017.3
20260506035725 9 135 0.0 4.8 0.00 0.10 0.00 14 1017.3
20260506035219 9 135 0.0 3.2 0.00 0.13 0.00 15 1017.2
20260506034713 9 135 1.6 4.8 0.00 0.13 0.00 16 1017.0
20260506034208 10 134 1.6 4.8 0.00 0.13 0.00 19 1017.0
20260506033708 10 134 0.0 3.2 0.00 0.13 0.00 20 1016.9
20260506033207 10 134 1.6 4.8 0.00 0.15 0.00 22 1016.8
20260506032938 10 134 1.6 6.4 0.00 0.15 0.00 25 1016.8
20260506032206 10 171 1.6 6.4 0.00 0.18 0.00 28 1016.7
20260506031706 10 171 3.2 8.0 0.00 0.18 0.00 28 1016.6
20260506031205 10 172 3.2 8.0 0.00 0.18 0.00 31 1016.5
20260506030704 10 154 1.6 4.8 0.00 0.18 0.00 34 1016.5
20260506030204 10 154 1.6 4.8 0.00 0.18 0.00 37 1016.5
20260506025703 10 155 1.6 6.4 0.00 0.20 0.00 40 1016.4
20260506025202 10 153 1.6 6.4 0.00 0.20 0.00 43 1016.3
20260506024701 10 169 1.6 6.4 0.00 0.20 0.00 47 1016.3
20260506024200 10 169 3.2 8.0 0.00 0.20 0.00 52 1016.3
20260506023658 10 159 3.2 8.0 0.00 0.20 0.00 55 1016.2
20260506023158 10 181 3.2 8.0 0.00 0.20 0.00 58 1016.2
20260506022658 11 157 3.2 8.0 0.00 0.20 0.00 60 1016.1
20260506022159 11 150 4.8 9.7 0.00 0.20 0.00 64 1016.1
20260506021659 11 177 4.8 9.7 0.00 0.20 0.00 68 1016.0
20260506021153 11 201 4.8 11.3 0.00 0.20 0.00 71 1016.0
20260506020652 11 141 3.2 11.3 0.00 0.20 0.00 74 1016.0
20260506020142 12 163 3.2 8.0 0.00 0.20 0.00 75 1016.0
20260506015635 12 182 3.2 8.0 0.00 0.20 0.00 76 1015.8
20260506015129 12 165 3.2 9.7 0.00 0.20 0.00 75 1015.8
20260506014623 12 144 3.2 9.7 0.00 0.20 0.00 77 1015.8
20260506014117 12 196 3.2 8.0 0.00 0.20 0.00 77 1015.7
20260506013611 12 146 3.2 9.7 0.00 0.20 0.00 78 1015.7
20260506013105 12 146 3.2 9.7 0.00 0.20 0.00 79 1015.7
20260506012559 12 137 4.8 8.0 0.00 0.20 0.00 79 1015.6
20260506012054 13 163 4.8 11.3 0.00 0.20 0.00 80 1015.5
20260506011821 13 163 4.8 12.9 0.00 0.20 0.00 80 1015.5
20260506011544 13 124 4.8 12.9 0.00 0.20 0.00 81 1015.4
20260506010535 13 182 4.8 11.3 0.00 0.20 0.00 81 1015.4
20260506010029 13 165 4.8 11.3 0.00 0.20 0.00 82 1015.5
20260506005523 13 163 4.8 11.3 0.00 0.20 0.00 82 1015.4
20260506005016 13 146 3.2 11.3 0.00 0.20 0.00 82 1015.5
20260506004742 13 166 3.2 11.3 0.00 0.20 0.00 83 1015.5
20260506004005 13 178 3.2 8.0 0.00 0.20 0.00 83 1015.4
20260506003459 14 115 1.6 6.4 0.00 0.20 0.00 83 1015.4
20260506002953 14 297 3.2 12.9 0.00 0.23 0.00 83 1015.4
20260506002447 14 200 3.2 12.9 0.00 0.23 0.00 83 1015.4
20260506001941 14 171 3.2 11.3 0.00 0.23 0.00 83 1015.4
20260506001705 14 159 3.2 11.3 0.00 0.23 0.00 83 1015.4
20260506000928 14 188 3.2 8.0 0.00 0.25 0.00 83 1015.4
20260506000655 14 154 4.8 12.9 0.00 0.25 0.00 83 1015.3
20260505235917 14 74 4.8 14.5 0.00 0.25 0.00 83 1015.3
20260505235411 15 136 3.2 11.3 0.00 0.28 0.00 83 1015.3
20260505234905 14 344 4.8 12.9 0.00 0.28 0.00 82 1015.3
20260505234359 14 202 4.8 16.1 0.00 0.28 0.00 83 1015.3
20260505233853 15 148 6.4 17.7 0.00 0.30 0.00 83 1015.3
20260505233619 15 185 6.4 17.7 0.00 0.30 0.00 81 1015.4
20260505232841 15 134 4.8 16.1 0.00 0.33 0.00 83 1015.4
20260505232335 15 168 4.8 12.9 0.00 0.33 0.00 82 1015.4
20260505231829 15 191 4.8 12.9 0.00 0.33 0.00 81 1015.4
20260505231329 15 147 4.8 14.5 0.00 0.33 0.00 81 1015.4
20260505231057 15 134 3.2 14.5 0.00 0.33 0.00 80 1015.4
20260505230326 15 173 3.2 11.3 0.00 0.33 0.00 80 1015.5
20260505225826 15 207 4.8 11.3 0.00 0.33 0.00 81 1015.5
20260505225326 15 115 3.2 8.0 0.00 0.33 0.00 79 1015.5
20260505224827 15 164 3.2 9.7 0.00 0.33 0.00 80 1015.4
20260505224327 15 250 3.2 11.3 0.00 0.33 0.00 80 1015.5
20260505223826 15 128 6.4 14.5 0.00 0.33 0.00 79 1015.5
20260505223325 15 158 4.8 14.5 0.00 0.33 0.00 79 1015.6
20260505222823 15 193 6.4 16.1 0.00 0.33 0.00 78 1015.5
20260505222554 16 144 6.4 16.1 0.00 0.33 0.00 80 1015.6
20260505221825 16 132 4.8 12.9 0.00 0.33 0.00 79 1015.6
20260505221325 16 143 3.2 12.9 0.00 0.33 0.00 78 1015.6
20260505220825 16 70 3.2 12.9 0.00 0.33 0.00 79 1015.6
20260505220325 16 151 1.6 9.7 0.00 0.33 0.00 78 1015.7
20260505215822 16 355 1.6 6.4 0.00 0.33 0.00 81 1015.7
20260505215321 16 108 1.6 8.0 0.00 0.33 0.00 81 1015.7
20260505214813 15 110 3.2 8.0 0.00 0.33 0.00 80 1015.8
20260505214315 15 164 3.2 12.9 0.00 0.33 0.00 82 1015.7
20260505214044 15 158 3.2 12.9 0.00 0.33 0.00 82 1015.8
20260505213545 15 135 1.6 8.0 0.00 0.33 0.00 82 1015.8
20260505212814 15 185 3.2 14.5 0.00 0.33 0.00 82 1015.8
20260505212314 15 157 4.8 14.5 0.00 0.33 0.00 80 1016.0
20260505211814 15 156 4.8 11.3 0.00 0.33 0.00 79 1016.0
20260505211315 15 152 1.6 8.0 0.00 0.33 0.00 83 1016.0
20260505211045 15 154 3.2 12.9 0.00 0.33 0.00 81 1016.0
20260505210314 15 24 3.2 14.5 0.00 0.33 0.00 82 1016.0
20260505205813 15 190 4.8 14.5 0.00 0.33 0.00 83 1016.0
20260505205314 15 165 3.2 14.5 0.00 0.33 0.00 83 1016.1
20260505205045 15 302 1.6 8.0 0.00 0.33 0.00 83 1016.0
20260505204545 15 161 3.2 11.3 0.00 0.33 0.00 81 1015.8
20260505203814 14 165 4.8 11.3 0.00 0.33 0.00 83 1016.0
20260505203317 13 137 4.8 11.3 0.00 0.33 0.00 81 1016.0
20260505202816 13 166 4.8 9.7 0.00 0.33 0.00 82 1016.1
20260505202315 14 160 4.8 8.0 0.00 0.33 0.00 82 1016.0
20260505202041 14 165 3.2 8.0 0.00 0.33 0.00 82 1016.1
20260505201303 13 171 4.8 9.7 0.00 0.33 0.00 77 1016.1
20260505200800 13 202 3.2 9.7 0.00 0.33 0.00 80 1016.1
20260505200300 13 194 4.8 11.3 0.00 0.33 0.00 74 1016.1
20260505195800 13 182 6.4 11.3 0.00 0.33 0.00 76 1016.1
20260505195259 13 171 4.8 11.3 0.00 0.33 0.00 72 1016.1
20260505194759 13 174 4.8 9.7 0.00 0.33 0.00 65 1016.1
20260505194300 13 166 3.2 9.7 0.00 0.33 0.00 67 1016.1
20260505193759 13 144 3.2 6.4 0.00 0.33 0.00 58 1016.0
20260505193300 12 147 1.6 4.8 0.00 0.33 0.00 60 1016.1
20260505192800 12 147 3.2 11.3 0.00 0.33 0.00 39 1016.1
20260505192259 12 147 3.2 11.3 0.00 0.33 0.00 45 1016.1
20260505191755 12 142 1.6 8.0 0.00 0.33 0.00 34 1016.1
20260505191256 12 177 1.6 6.4 0.00 0.33 0.00 11 1016.1
20260505190755 12 267 1.6 6.4 0.00 0.33 0.00 5 1016.1
20260505190253 11 250 3.2 8.0 0.00 0.33 0.00 6 1016.0
20260505185752 11 26 3.2 9.7 0.00 0.33 0.00 1 1016.0
20260505185252 11 121 3.2 9.7 0.00 0.33 0.00 1 1016.0
20260505184753 11 113 3.2 11.3 0.00 0.33 0.00 1 1016.0
20260505184523 11 122 4.8 11.3 0.00 0.33 0.00 1 1016.0
20260505183747 11 163 3.2 8.0 0.00 0.33 0.00 1 1016.0
20260505183240 11 173 4.8 11.3 0.00 0.36 0.00 1 1016.0
20260505183006 11 159 4.8 11.3 0.00 0.36 0.00 1 1015.8
20260505182228 11 166 4.8 11.3 0.00 0.36 0.00 1 1015.8
20260505181722 11 126 3.2 11.3 0.00 0.36 0.00 1 1015.7
20260505181218 11 153 1.6 8.0 0.00 0.38 0.00 1 1015.7
20260505180943 11 153 3.2 8.0 0.00 0.41 0.00 1 1015.7
20260505180204 11 168 3.2 8.0 0.00 0.43 0.00 1 1015.6
20260505175659 11 171 3.2 8.0 0.00 0.43 0.00 1 1015.6
20260505175152 11 169 3.2 8.0 0.00 0.48 0.00 1 1015.6
20260505174646 10 194 1.6 6.4 0.00 0.51 0.00 1 1015.6
20260505174140 10 194 0.0 4.8 0.00 0.53 0.00 1 1015.5
20260505173904 10 194 1.6 9.7 0.00 0.53 0.00 1 1015.5
20260505173400 10 194 3.2 9.7 0.00 0.53 0.00 1 1015.5
20260505172622 10 161 1.6 6.4 0.00 0.56 0.00 1 1015.4
20260505172117 10 161 1.6 8.0 0.00 0.56 0.00 1 1015.4
20260505171610 10 161 3.2 8.0 0.00 0.56 0.00 1 1015.4
20260505171104 10 178 3.2 6.4 0.00 0.56 0.00 1 1015.3
20260505170558 10 179 3.2 8.0 0.00 0.56 0.00 1 1015.4
20260505170052 10 167 4.8 8.0 0.00 0.56 0.00 1 1015.3
20260505165547 11 164 3.2 8.0 0.00 0.56 0.00 1 1015.4
20260505165040 10 166 1.6 6.4 0.00 0.58 0.00 1 1015.3
20260505164534 10 19 0.0 1.6 0.00 0.58 0.00 1 1015.3
20260505164028 9 18 0.0 0.0 0.00 0.58 0.00 1 1015.3
20260505163759 9 18 0.0 0.0 0.00 0.61 0.00 1 1015.3
20260505163255 9 18 0.0 0.0 0.00 0.61 0.00 1 1015.3
20260505162524 9 18 0.0 4.8 0.00 0.61 0.00 1 1015.3
20260505162022 8 18 0.0 4.8 0.00 0.61 0.00 1 1015.3
20260505161519 8 19 0.0 3.2 0.00 0.61 0.00 1 1015.3
20260505161020 8 19 0.0 3.2 0.00 0.61 0.00 1 1015.3
20260505160520 8 18 0.0 0.0 0.00 0.61 0.00 1 1015.2
20260505160251 8 16 0.0 0.0 0.00 0.61 0.00 1 1015.3
20260505153014 7 34 1.6 4.8 0.00 0.61 0.00 1 1015.2
20260505152515 7 34 1.6 6.4 0.00 0.61 0.00 1 1015.3
20260505152247 7 35 1.6 6.4 0.00 0.61 0.00 2 1015.2
20260505151516 7 35 1.6 4.8 0.00 0.61 0.00 1 1015.2
20260505151015 7 31 1.6 6.4 0.00 0.61 0.00 1 1015.2
20260505150509 7 39 1.6 6.4 0.00 0.61 0.00 1 1015.2
20260505140448 7 57 1.6 4.8 0.00 0.61 0.00 2 1014.6
20260505124940 7 57 0.0 3.2 0.00 0.61 0.00 1 1014.2
20260505124442 6 58 0.0 3.2 0.00 0.61 0.00 1 1014.1
20260505123940 6 58 0.0 4.8 0.00 0.61 0.00 1 1014.1
20260505123712 6 58 0.0 6.4 0.00 0.61 0.00 1 1014.0
20260505122940 6 58 0.0 6.4 0.00 0.61 0.00 1 1014.0
20260505122440 6 49 1.6 8.0 0.00 0.61 0.00 1 1014.0
20260505121941 6 49 1.6 8.0 0.00 0.61 0.00 1 1014.1
20260505121441 6 46 0.0 6.4 0.00 0.64 0.00 1 1014.0
20260505120939 6 55 0.0 3.2 0.00 0.64 0.00 1 1014.1
20260505120439 6 55 0.0 3.2 0.00 0.64 0.00 1 1014.2
20260505115933 6 55 0.0 3.2 0.00 0.64 0.00 1 1014.1
20260505115429 6 55 0.0 3.2 0.00 0.64 0.00 1 1014.1
20260505114921 6 32 0.0 1.6 0.00 0.64 0.00 1 1014.0
20260505114415 6 32 0.0 3.2 0.00 0.64 0.00 1 1014.1
20260505113909 6 32 0.0 4.8 0.00 0.64 0.00 1 1014.1
20260505113403 6 114 0.0 4.8 0.00 0.64 0.00 1 1014.1
20260505112857 6 107 0.0 3.2 0.00 0.64 0.00 1 1014.2
20260505112351 6 107 0.0 1.6 0.00 0.64 0.00 1 1014.2
20260505111844 6 107 0.0 1.6 0.00 0.64 0.00 1 1014.2
20260505111610 6 107 0.0 1.6 0.00 0.64 0.00 1 1014.2
20260505110833 6 106 0.0 1.6 0.00 0.64 0.00 1 1014.1
20260505110327 6 106 0.0 0.0 0.00 0.64 0.00 1 1014.1